Location: 22
(39.7117°N, 89.5929°W)
Time: 22:48:04
(UTC-05:00)

Vanguard 3 - Pass Details

Date: 05 February 2023
Orbit: 508 x 3249 km, 33.4° (Epoch: 24 March)

Event Time Altitude Azimuth Distance (km) Brightness Sun altitude
Rises 00:45:18 0° 279° (W) 6,123 - -65.2°
Reaches altitude 10° 00:49:35 10° 270° (W) 5,439 - -64.9°
Maximum altitude 01:03:48 32° 216° (SW) 4,489 - -63.7°
Drops below altitude 10° 01:19:45 10° 162° (SSE) 6,044 - -62.1°
Sets 01:24:59 0° 153° (SSE) 6,861 - -61.5°
